Regional Weather Roundup
Issued by NWS

Home | Current Version | Previous Version | Text Only | Print | Product List | Glossary Off
Versions: 1 2 3 4 5 6 7 8 9 10 11 12 13 14 15 16 17 18 19 20 21 22 23 24 25 26 27 28 29 30 31 32 33 34 35 36 37 38 39 40 41 42 43 44 45 46 47 48 49 50

000
ASUS45 KTFX 270910
RWRMT
MONTANA REGIONAL WEATHER ROUNDUP
NATIONAL WEATHER SERVICE GREAT FALLS MT
300 AM MDT WED MAY 27 2015

NOTE: "FAIR" INDICATES FEW OR NO CLOUDS BELOW 12000 FEET WITH NO
SIGNIFICANT WEATHER AND/OR OBSTRUCTIONS TO VISIBILITY.

MTZ001>007-043-271000-
WEST OF THE DIVIDE

CITY           SKY/WX    TMP DP  RH WIND       PRES   REMARKS
KALISPELL      MOSUNNY   44  42  93 NW3       29.98R
MISSOULA       PTCLDY    49  45  86 E6        30.02F
BUTTE          CLOUDY    47  42  83 NW3       30.06S
MULLAN PASS    PTCLDY    44  39  82 CALM      30.05R
$$

MTZ008-052>055-271000-
SOUTHWEST MONTANA

CITY           SKY/WX    TMP DP  RH WIND       PRES   REMARKS
BOZEMAN        CLOUDY    50  47  89 SE6       30.04S
DILLON         CLOUDY    49  45  86 CALM      30.04R
W YELLOWSTONE  CLOUDY    41  39  93 SW3       30.10R
$$

MTZ009-010-012-014-046-048-049-054-271000-
EAST SLOPES AND CENTRAL MONTANA

CITY           SKY/WX    TMP DP  RH WIND       PRES   REMARKS
CUT BANK       PTCLDY    47  45  93 N10       30.01R
GREAT FALLS    MOCLDY    47  45  93 W5        29.99R
MALMSTROM AFB  MOCLDY    47  46  98 S2        30.00R
HELENA         LGT RAIN  53  47  79 E5        30.03R
$$

MTZ011-013-016-021-045-047-050-051-271000-
NORTH CENTRAL MONTANA

CITY           SKY/WX    TMP DP  RH WIND       PRES   REMARKS
HAVRE          LGT RAIN  55  53  93 W6        29.95R
LEWISTOWN      PTCLDY    47  43  86 S3        29.99R
N BAR RANCH    CLOUDY    50  45  81 SW7       30.02R
$$

MTZ017>020-022>027-061-062-271000-
NORTHEAST MONTANA

CITY           SKY/WX    TMP DP  RH WIND       PRES   REMARKS
GLASGOW        MOCLDY    59  48  67 N8        29.89S THUNDER
JORDAN           N/A     56  53  90 CALM      29.91S
SIDNEY         CLEAR     50  45  81 CALM      29.92R
WOLF POINT     PTCLDY    53  46  77 E3        29.89R
$$

MTZ028>42-056>058-271000-
SOUTHCENTRAL AND SOUTHEAST MONTANA

CITY           SKY/WX    TMP DP  RH WIND       PRES   REMARKS
BAKER          CLEAR     47  44  90 E5        29.94F
BILLINGS       MOCLDY    53  50  89 CALM      29.96S
LIVINGSTON     PTCLDY    52  43  71 W21       30.00R
MILES CITY     CLOUDY    56  49  77 S6        29.90S
$$

REGIONAL REPORTS...DAKOTAS

CITY           SKY/WX    TMP DP  RH WIND       PRES   REMARKS
WILLISTON      PTCLDY    51  44  77 CALM      29.91R
MINOT          CLEAR     59  46  62 SW12      29.88R
DICKINSON      CLEAR     50  43  77 SW7       29.94R
BEACH          FAIR      48  48 100 SE7       29.95S
CROSBY         FAIR      54  50  87 S10       29.90R
WATFORD CITY   FAIR      50  43  76 CALM      29.91R
BISMARCK       CLEAR     51  48  89 CALM      29.93R
GRAND FORKS    CLEAR     58  47  66 NW9       29.81R
FARGO          CLEAR     56  49  77 W3        29.81R
BUFFALO SD       N/A     52  45  77 SE3       29.90S
RAPID CITY     MOCLDY    51  48  89 SE5       29.97S
$$

REGIONAL REPORTS...WYOMING/IDAHO/WASHINGTON

CITY           SKY/WX    TMP DP  RH WIND       PRES   REMARKS
GILLETTE       MOCLDY    49  46  90 CALM      29.97F
SHERIDAN       MOCLDY    47  45  93 S5        29.95F
BUFFALO WY     CLOUDY    50  46  86 E6        29.99F
CODY           CLOUDY    52  45  76 CALM      29.99S
YELLOWSTONE LA   N/A     36  34  92 CALM      30.15R
IDAHO FALLS    PTCLDY    45  43  93 NW8       30.07R
SALMON         MOCLDY    50  43  76 E12       30.02R
BOISE          MOCLDY    58  48  69 SW3       29.95R
SPOKANE        PTCLDY    52  48  86 CALM      29.98S
$$

REGIONAL REPORTS...ALBERTA

CITY           SKY/WX    TMP DP  RH WIND       PRES   REMARKS
EDMONTON       CLEAR     46  41  81 CALM      29.98S
CALGARY        CLOUDY    54  45  71 W6        30.05F
LETHBRIDGE     CLOUDY    52  48  87 NW8       30.00F
MEDICINE HAT   CLEAR     59  48  67 NW7       29.97R
$$

REGIONAL REPORTS...SASKATCHEWAN

CITY           SKY/WX    TMP DP  RH WIND       PRES   REMARKS
SWIFT CURRENT  CLEAR     54  48  82 E12       29.92S
REGINA         MOCLDY    57  46  67 NE18      29.93R
SASKATOON      CLEAR     46  43  87 E10       30.03R
$$



USA.gov is the U.S. government's official web portal to all federal, state and local government web resources and services.